Location: Newark
(23.3970°S, 47.6010°W)
Time: 06:04:52
(UTC+00:00)

deb Explorer IX - Pass Details

Date: 26 February 2020
Orbit: 548 x 1100 km, 38.8° (Epoch: 07 April)

Event Time Altitude Azimuth Distance (km) Brightness Sun altitude
Rises 03:27:08 0° 235° (SW) 3,821 - -57.6°
Reaches altitude 10° 03:30:19 10° 223° (SW) 2,917 - -57.6°
Maximum altitude 03:36:15 27° 167° (SSE) 1,994 - -57.5°
Drops below altitude 10° 03:42:15 10° 112° (ESE) 2,944 - -57.3°
Sets 03:45:28 0° 100° (E) 3,862 - -57.2°
